Regional Weather Roundup
Issued by NWS

Home | Current Version | Previous Version | Text Only | Print | Product List | Glossary Off
Versions: 1 2 3 4 5 6 7 8 9 10 11 12 13 14 15 16 17 18 19 20 21 22 23 24 25 26 27 28 29 30 31 32 33 34 35 36 37 38 39 40 41 42 43 44 45 46 47 48 49 50

000
ASUS43 KIND 101359
RWRIN

WEATHER ROUNDUP FOR INDIANA
NATIONAL WEATHER SERVICE INDIANAPOLIS IN
1000 AM EDT THU JUL 10 2014

NOTE: "FAIR" INDICATES FEW OR NO CLOUDS BELOW 12,000 FEET WITH NO
SIGNIFICANT WEATHER AND/OR OBSTRUCTIONS TO VISIBILITY.

* - STATION DOES NOT REPORT WEATHER SUCH AS PRECIPITATION OR FOG.

+ - STATION NOT QUALITY CONTROLLED BY THE NATIONAL WEATHER SERVICE.
    USE DATA WITH CAUTION...ESPECIALLY DEWPOINT AND RELATIVE
    HUMIDITY OBSERVATIONS.

INZ001>003-010>013-019-020-101500-
NORTHWEST INDIANA

CITY           SKY/WX    TMP DP  RH WIND       PRES   REMARKS
GARY /AIRPORT/ MOSUNNY   72  63  73 NE7       30.16R
MONTICELLO +   SUNNY     67  57  71 NE8       30.16R
RENSSELAER +   SUNNY     68  61  77 NE5       30.17R
VALPARAISO     SUNNY     69  61  75 VRB5      30.17R

$$

LMZ046-743>745-101500-
SOUTHERN LAKE MICHIGAN

STATION/POSITION TIME  TEMP WIND        PRES
                       AIR  DIR/SP/G
                 (UTC) (F)  (DEG/KT/KT) (MB)
MICHIGAN CITY    1300   64   40/  7/  8   N/A

$$

INZ004-005-014>016-021>024-101500-
NORTH CENTRAL INDIANA

CITY           SKY/WX    TMP DP  RH WIND       PRES   REMARKS
ELKHART        SUNNY     66  50  55 N7        30.17R
GOSHEN         SUNNY     65  53  65 N9        30.17R
SOUTH BEND     SUNNY     67  55  65 NE6       30.17R
WARSAW +       SUNNY     64  54  68 N5        30.17R

$$

INZ006>009-017-018-025>027-101500-
NORTHEAST INDIANA

CITY           SKY/WX    TMP DP  RH WIND       PRES   REMARKS
ANGOLA *+      SUNNY     66  55  68 VRB5      30.16R
FORT WAYNE     SUNNY     69  54  58 N6        30.16R

$$

INZ028-029-035-036-043>045-051>053-101500-
WEST CENTRAL INDIANA

CITY           SKY/WX    TMP DP  RH WIND       PRES   REMARKS
GREENCASTLE +  MOSUNNY   70  59  68 CALM      30.16R
LAFAYETTE      SUNNY     69  56  62 NE8       30.16R
TERRE HAUTE    SUNNY     71  60  68 NE6       30.15R

$$

INZ030>032-037>040-046>048-054>057-064-065-101500-
CENTRAL INDIANA

CITY           SKY/WX    TMP DP  RH WIND       PRES   REMARKS
COLUMBUS       MOSUNNY   68  63  83 MISG      30.14R
INDIANAPOLIS   MOSUNNY   71  57  61 NE7       30.14R
-EAGLE CREEK   SUNNY     71  56  58 VRB7      30.14R
KOKOMO *+      SUNNY     70  55  60 NE9       30.16R
MT COMFORT *+  MOSUNNY   70  66  88 N7        30.16R
SHELBYVILLE    PTSUNNY   73  60  63 N7        30.14R

$$

INZ033-034-041-042-049-050-058-059-101500-
EAST CENTRAL INDIANA

CITY           SKY/WX    TMP DP  RH WIND       PRES   REMARKS
MUNCIE         SUNNY     70  56  61 NE7       30.16R

$$

INZ060-061-067>069-081>083-085>088-101500-
SOUTHWEST INDIANA

CITY           SKY/WX    TMP DP  RH WIND       PRES   REMARKS
EVANSVILLE     SUNNY     75  60  59 NE6       30.12R
HUNTINGBURG *+ SUNNY     73  63  68 NE6       30.12S

$$

INZ062-063-066-070>080-084-089>092-101500-
SOUTH CENTRAL AND SOUTHEAST INDIANA

CITY           SKY/WX    TMP DP  RH WIND       PRES   REMARKS
BLOOMINGTON    SUNNY     73  60  63 N7        30.14R
SEYMOUR +      SUNNY     68  46  45 NE3       30.12R

$$




USA.gov is the U.S. government's official web portal to all federal, state and local government web resources and services.